Regional Weather Roundup
Issued by NWS Newport/Morehead, NC

Current Version | Previous Version | Text Only | Print | Product List | Glossary Off
Versions: 1 2 3 4 5 6 7 8 9 10 11 12 13 14 15 16 17 18 19 20 21 22 23 24 25 26 27 28 29 30 31 32 33 34 35 36 37 38 39 40 41 42 43 44 45 46 47 48 49 50
170 ASUS42 KMHX 260925 RWRMHX WEATHER ROUNDUP FOR EASTERN NORTH CAROLINA NATIONAL WEATHER SERVICE NEWPORT/MOREHEAD CITY NC 500 AM EDT MON JUN 26 2017 NOTE: "FAIR" INDICATES FEW OR NO CLOUDS BELOW 12,000 FEET WITH NO SIGNIFICANT WEATHER AND/OR OBSTRUCTIONS TO VISIBILITY NCZ015>017-031-032-045>047-102-103-261000- NORTH COAST CITY SKY/WX TMP DP RH WIND PRES REMARKS EDENTON PTCLDY 67 62 83 CALM 30.07R ELIZABETH CITY CLOUDY 66 62 87 W5 30.05S KITTY HAWK MOSUNNY 73 60 63 NW3 30.03S MANTEO PTCLDY 74 61 62 N7 30.05R $$ NCZ045>047-081-094-103-104-261000- CENTRAL COAST CITY SKY/WX TMP DP RH WIND PRES REMARKS FRISCO CLOUDY 78 60 53 VRB6 30.04S $$ NCZ095-097-098-100-101-261000- SOUTHERN COAST CITY SKY/WX TMP DP RH WIND PRES REMARKS BEAUFORT PTCLDY 73 68 84 N6 30.04F CEDAR ISLAND NOT AVBL JACKSONVILLE PTCLDY 73 68 84 N6 30.05S PINEY ISLAND MOSUNNY N/A N/A N/A N8 30.04S WILMINGTON CLOUDY 74 70 87 CALM 30.05S $$ NCZ011>013-027>030-043-044-078>080-089-090>093-098-261000- COASTAL PLAIN CITY SKY/WX TMP DP RH WIND PRES REMARKS AHOSKIE N/A 62 58 85 CALM 30.08S CLINTON PTCLDY 71 65 80 N3 30.07F ELIZABETHTOWN NOT AVBL GOLDSBORO CLOUDY 70 65 84 N5 30.05F GREENVILLE PTCLDY 66 63 88 CALM 30.08F HAVELOCK CLOUDY 74 64 71 N8 30.05F KENANSVILLE MOCLDY 70 66 88 N6 30.07S KINSTON PTCLDY 65 64 94 CALM 30.08S NEW BERN PTCLDY 70 65 84 N5 30.06F RICHLANDS PTCLDY 69 67 93 CALM 30.07 ROCKY MOUNT PTCLDY 62 61 96 CALM 30.08S WASHINGTON N/A N/A N/A N/A CALM 30.07S WHITEVILLE PTCLDY 69 66 89 CALM 30.06S $$ AMZ130-135-150-152-154-156-158-170-250-252-270-ANZ085-086-088-633-658-670-261000- MARINE OBSERVATIONS STATION/POSITION TIME TEMP WIND PRES WAVE SWELL AIR SEA DIR/SP/G HT/PER HT/PER (UTC) (F) (DEG/KT/KT) (MB) (FT/S) (FT/S) CHESAPEAKE LIGHT NOT AVBL 64 E VA BEACH 0850 74 74 300/ 8/ 10 1017.0 2/ 7 2/ 7 DUCK 0900 73 71 330/ 10/ 11 1016.8 2 E DUCK NOT AVBL OREGON INLET 0900 77 74 310/ 10/ 15 1017.0 13E OREGON INLT 0848 76 N/A 2/ 7 2/ 7 HATTERAS CG 0900 79 77 340/ 13/ 15 1017.0 DIAMOND BUOY 0850 79 79 340/ 10/ 12 1017.0 2/ 8 2/ 8 CAPE LOOKOUT 0900 76 360/ 7/ 8 1016.8 BEAUFORT LAB 0900 76 78 10/ 5/ 7 1016.5 30 SE NEW RVR IN 0908 78 80 30/ 10/ 12 1017.3 30 SE NEW RVR IN 0843 80 N/A 3/ 6 27 SE WRIGHTSVLE 0908 74 80 50/ 14/ 19 1016.7 5 SE WRIGHTSVLE 0908 78 79 40/ 6/ 12 1017.5 225 S CAPE HAT 0850 80 80 200/ 10/ 12 1018.5 3/ 6 3/ 6 41 SE CHARLESTON 0910 79 81 270/ 8/ 10 1016.5 $$

USA.gov is the U.S. government's official web portal to all federal, state and local government web resources and services.